Date String (YYYY-MM-DD hh:mm:ss) UTC,Instrument flags,absolute air pressure of the measurement (hPa),sample flow rate (lpm),inlet stack bypass flow (lpm),air temperature of the measurement (°C),ambient temperature measured by the external sensor (°C),aerosol sample conditioner tube jacket temperature (°C),OPC LED temperature (°C),internal box temperature (°C),relative humidity of the measurement (%),span deviation,mass concentration of particles derived from Lorenz-Mie calculation of OPC scattering (μg/m³),mass concentration of particles derived from Lorenz-Mie calculation of OPC scattering (μg/m³),mass concentration of particles derived from Lorenz-Mie calculation of OPC scattering (μg/m³)
DateTimeUTC,F1_M11,P_M11,Q1_M11,Q2_M11,T1_M11,T2_M11,T3_M11,T4_M11,T5_M11,U1_M11,ZSPAN_M11,X0_M11,X2_M11,X1_M11
2024-04-18 21:00:00,SystemResetWarning,0833.4,4.99,000.00,020.4,019.7,000.0,029.0,022.2,021.9,0000.0,0006.51,0004.55,0004.33
2024-04-18 21:01:00,SystemResetWarning,0833.5,4.99,000.00,020.4,019.7,000.0,029.0,022.2,021.8,0000.0,0006.44,0004.53,0004.31
2024-04-18 21:02:00,SystemResetWarning,0833.5,5.00,000.00,020.4,019.7,000.0,029.0,022.2,021.8,0000.0,0006.39,0004.51,0004.29
2024-04-18 21:03:00,SystemResetWarning,0833.4,5.00,000.00,020.4,019.7,000.0,029.0,022.2,021.7,0000.0,0006.19,0004.48,0004.27
2024-04-18 21:04:00,SystemResetWarning,0833.4,5.02,000.00,020.4,019.7,000.0,029.0,022.2,021.8,0000.0,0006.11,0004.46,0004.26
2024-04-18 21:05:00,SystemResetWarning,0833.4,5.00,000.00,020.4,019.7,000.0,029.0,022.2,021.8,0000.0,0006.09,0004.43,0004.24
2024-04-18 21:06:00,SystemResetWarning,0833.5,5.00,000.00,020.4,019.7,000.0,029.0,022.2,021.9,0000.0,0006.23,0004.43,0004.22
2024-04-18 21:07:00,SystemResetWarning,0833.4,4.99,000.00,020.4,019.7,000.0,029.0,022.2,021.9,0000.0,0006.28,0004.46,0004.24
2024-04-18 21:08:00,SystemResetWarning,0833.4,4.99,000.00,020.4,019.7,000.0,029.0,022.2,022.1,0000.0,0006.38,0004.49,0004.26
2024-04-18 21:09:00,SystemResetWarning,0833.4,5.01,000.00,020.4,019.7,000.0,028.9,022.2,022.0,0000.0,0006.45,0004.51,0004.27
2024-04-18 21:10:00,SystemResetWarning,0833.4,5.00,000.00,020.3,019.7,000.0,028.9,022.2,022.0,0000.0,0007.17,0004.49,0004.26
2024-04-18 21:11:00,SystemResetWarning,0833.4,5.01,000.00,020.3,019.7,000.0,028.9,022.1,022.1,0000.0,0007.43,0004.52,0004.26
2024-04-18 21:12:00,SystemResetWarning,0833.5,5.00,000.00,020.3,019.6,000.0,028.9,022.1,022.2,0000.0,0007.48,0004.54,0004.27
2024-04-18 21:13:00,SystemResetWarning,0833.6,5.00,000.00,020.3,019.6,000.0,028.9,022.1,022.2,0000.0,0007.36,0004.51,0004.26
2024-04-18 21:14:00,SystemResetWarning,0833.6,5.00,000.00,020.3,019.6,000.0,028.9,022.1,022.4,0000.0,0007.33,0004.50,0004.26
2024-04-18 21:15:00,SystemResetWarning,0833.5,4.99,000.00,020.3,019.6,000.0,028.9,022.1,023.6,0000.0,0007.47,0004.55,0004.28
2024-04-18 21:16:00,SystemResetWarning,0833.4,5.00,000.00,020.3,019.6,000.0,028.9,022.1,023.4,0000.0,0007.54,0004.61,0004.33
2024-04-18 21:17:00,SystemResetWarning,0833.4,5.00,000.00,020.3,019.6,000.0,028.9,022.1,022.8,0000.0,0007.56,0004.63,0004.34
2024-04-18 21:18:00,SystemResetWarning,0833.4,5.00,000.00,020.3,019.6,000.0,028.9,022.1,022.7,0000.0,0007.51,0004.59,0004.31
2024-04-18 21:19:00,SystemResetWarning,0833.3,5.00,000.00,020.3,019.6,000.0,028.9,022.1,022.3,0000.0,0007.51,0004.57,0004.27
2024-04-18 21:20:00,SystemResetWarning,0833.3,5.01,000.00,020.3,019.6,000.0,028.9,022.1,022.4,0000.0,0007.50,0004.54,0004.23
2024-04-18 21:21:00,SystemResetWarning,0833.3,5.00,000.00,020.3,019.6,000.0,028.9,022.1,022.3,0000.0,0007.05,0004.54,0004.21
2024-04-18 21:22:00,SystemResetWarning,0833.3,4.99,000.00,020.3,019.6,000.0,028.9,022.1,022.3,0000.0,0006.72,0004.51,0004.18
2024-04-18 21:23:00,SystemResetWarning,0833.3,4.99,000.00,020.3,019.6,000.0,028.9,022.1,022.4,0000.0,0006.49,0004.44,0004.14
2024-04-18 21:24:00,SystemResetWarning,0833.3,5.00,000.00,020.3,019.6,000.0,028.9,022.1,022.3,0000.0,0006.49,0004.42,0004.12
2024-04-18 21:25:00,SystemResetWarning,0833.4,4.99,000.00,020.3,019.6,000.0,028.9,022.1,022.1,0000.0,0006.42,0004.39,0004.09
2024-04-18 21:26:00,SystemResetWarning,0833.4,5.00,000.00,020.3,019.6,000.0,028.9,022.1,022.0,0000.0,0006.34,0004.34,0004.04
2024-04-18 21:27:00,SystemResetWarning,0833.4,5.01,000.00,020.3,019.6,000.0,028.9,022.1,022.1,0000.0,0006.03,0004.24,0003.96
2024-04-18 21:28:00,SystemResetWarning,0833.3,5.01,000.00,020.3,019.6,000.0,028.9,022.1,022.1,0000.0,0005.87,0004.17,0003.90
2024-04-18 21:29:00,SystemResetWarning,0833.4,4.99,000.00,020.2,019.6,000.0,028.9,022.1,022.1,0000.0,0005.66,0004.12,0003.87
2024-04-18 21:30:00,SystemResetWarning,0833.4,4.99,000.00,020.2,019.5,000.0,028.8,022.0,022.2,0000.0,0005.60,0004.10,0003.85
2024-04-18 21:31:00,SystemResetWarning,0833.3,4.99,000.00,020.2,019.5,000.0,028.8,022.0,022.5,0000.0,0005.58,0004.09,0003.83
2024-04-18 21:32:00,SystemResetWarning,0833.3,5.01,000.00,020.2,019.5,000.0,028.8,022.0,022.5,0000.0,0005.41,0004.05,0003.81
2024-04-18 21:33:00,SystemResetWarning,0833.3,5.01,000.00,020.2,019.5,000.0,028.8,022.0,022.4,0000.0,0005.37,0004.02,0003.79
2024-04-18 21:34:00,SystemResetWarning,0833.4,5.00,000.00,020.2,019.5,000.0,028.8,022.0,022.3,0000.0,0005.34,0004.00,0003.76
2024-04-18 21:35:00,SystemResetWarning,0833.4,5.00,000.00,020.2,019.5,000.0,028.8,022.0,022.3,0000.0,0005.30,0003.97,0003.73
2024-04-18 21:36:00,SystemResetWarning,0833.3,5.00,000.00,020.2,019.5,000.0,028.8,021.9,022.5,0000.0,0005.56,0003.98,0003.70
2024-04-18 21:37:00,SystemResetWarning,0833.3,4.99,000.00,020.2,019.4,000.0,028.8,021.9,022.5,0000.0,0005.82,0004.00,0003.70
2024-04-18 21:38:00,SystemResetWarning,0833.3,5.00,000.00,020.2,019.4,000.0,028.8,021.9,022.5,0000.0,0006.35,0004.00,0003.69
2024-04-18 21:39:00,SystemResetWarning,0833.3,5.00,000.00,020.1,019.4,000.0,028.8,021.9,022.6,0000.0,0006.93,0003.97,0003.65
2024-04-18 21:40:00,SystemResetWarning,0833.3,5.01,000.00,020.1,019.4,000.0,028.8,021.9,022.5,0000.0,0006.90,0003.95,0003.62
2024-04-18 21:41:00,SystemResetWarning,0833.2,5.01,000.00,020.1,019.4,000.0,028.8,021.9,022.5,0000.0,0006.93,0003.93,0003.59
2024-04-18 21:42:00,SystemResetWarning,0833.3,5.00,000.00,020.1,019.4,000.0,028.8,021.9,022.5,0000.0,0006.82,0003.88,0003.55
2024-04-18 21:43:00,SystemResetWarning,0833.3,4.99,000.00,020.1,019.4,000.0,028.7,021.9,022.5,0000.0,0006.75,0003.83,0003.51
2024-04-18 21:44:00,SystemResetWarning,0833.3,4.99,000.00,020.1,019.4,000.0,028.7,021.9,022.4,0000.0,0007.03,0003.81,0003.49
2024-04-18 21:45:00,SystemResetWarning,0833.3,5.00,000.00,020.1,019.4,000.0,028.7,021.9,022.3,0000.0,0007.27,0003.78,0003.46
2024-04-18 21:46:00,SystemResetWarning,0833.3,5.00,000.00,020.1,019.4,000.0,028.7,021.9,022.3,0000.0,0007.30,0003.77,0003.44
2024-04-18 21:47:00,SystemResetWarning,0833.3,5.01,000.00,020.1,019.3,000.0,028.7,021.9,022.3,0000.0,0007.03,0003.73,0003.43
2024-04-18 21:48:00,SystemResetWarning,0833.3,5.00,000.00,020.1,019.3,000.0,028.7,021.8,022.3,0000.0,0006.67,0003.67,0003.39
2024-04-18 21:49:00,SystemResetWarning,0833.2,4.99,000.00,020.1,019.3,000.0,028.7,021.8,022.3,0000.0,0005.96,0003.61,0003.37
2024-04-18 21:50:00,SystemResetWarning,0833.2,4.99,000.00,020.1,019.3,000.0,028.7,021.9,022.4,0000.0,0005.48,0003.61,0003.38
2024-04-18 21:51:00,SystemResetWarning,0833.2,5.00,000.00,020.0,019.3,000.0,028.7,021.9,022.5,0000.0,0006.89,0003.63,0003.40
2024-04-18 21:52:00,SystemResetWarning,0833.3,5.00,000.00,020.0,019.3,000.0,028.7,021.8,022.4,0000.0,0006.88,0003.65,0003.43
2024-04-18 21:53:00,SystemResetWarning,0833.2,5.00,000.00,020.0,019.3,000.0,028.7,021.8,022.5,0000.0,0006.95,0003.69,0003.48
2024-04-18 21:54:00,SystemResetWarning,0833.2,5.00,000.00,020.0,019.3,000.0,028.7,021.8,022.6,0000.0,0007.09,0003.75,0003.54
2024-04-18 21:55:00,SystemResetWarning,0833.2,5.01,000.00,020.0,019.3,000.0,028.7,021.8,022.6,0000.0,0006.77,0003.77,0003.57
2024-04-18 21:56:00,SystemResetWarning,0833.2,5.01,000.00,020.0,019.3,000.0,028.6,021.8,022.7,0000.0,0006.60,0003.80,0003.60
2024-04-18 21:57:00,SystemResetWarning,0833.2,4.99,000.00,020.0,019.3,000.0,028.6,021.8,022.7,0000.0,0006.68,0003.83,0003.63
2024-04-18 21:58:00,SystemResetWarning,0833.2,4.99,000.00,020.0,019.3,000.0,028.6,021.8,022.6,0000.0,0006.63,0003.82,0003.64
2024-04-18 21:59:00,SystemResetWarning,0833.2,4.99,000.00,020.0,019.3,000.0,028.6,021.8,022.7,0000.0,0006.63,0003.82,0003.65
